Regional Weather Roundup
Issued by NWS Cleveland, OH

Home | Current Version | Previous Version | Graphics & Text | Print | Product List | Glossary On
Versions: 1 2 3 4 5 6 7 8 9 10 11 12 13 14 15 16 17 18 19 20 21 22 23 24 25 26 27 28 29 30 31 32 33 34 35 36 37 38 39 40 41 42 43 44 45 46 47 48 49 50
000
ASUS41 KCLE 050302
RWRCLE
OHIO REGIONAL WEATHER ROUNDUP
NATIONAL WEATHER SERVICE CLEVELAND, OH
1100 PM EDT WED MAY 04 2016

NOTE: "FAIR" INDICATES FEW OR NO CLOUDS BELOW 12,000 FEET WITH NO
SIGNIFICANT WEATHER AND/OR OBSTRUCTIONS TO VISIBILITY.

OHZ001>008-015>018-024>027-034-035-043-044-050400-
   NORTHWEST OHIO

CITY           SKY/WX    TMP DP  RH WIND       PRES   REMARKS
DEFIANCE       CLOUDY    43  36  76 NW7       29.73R
FINDLAY        CLOUDY    45  37  73 W8        29.71R
TOLEDO EXPRESS CLOUDY    45  40  82 NW5       29.71R
TOLEDO EXEC    CLOUDY    47  41  80 W7        29.72R
LIMA           CLOUDY    42  37  82 NW8       29.72R
$$

OHZ009>014-019>023-028>033-038-089-050400-
   NORTHEAST OHIO

CITY           SKY/WX    TMP DP  RH WIND       PRES   REMARKS
CLE-HOPKINS    LGT RAIN  50  47  89 W5        29.72S
CLE-LAKEFRONT  CLOUDY    51  47  86 W5        29.69S
CUY CO. ARPT   CLOUDY    52  46  82 W6        29.70S
LORAIN-ELYRIA  LGT RAIN  48  44  86 W5        29.71R
ASHTABULA      MOCLDY    51  44  77 SW5       29.69R
AKRON-CANTON   LGT RAIN  50  46  86 CALM      29.69S
WOOSTER        LGT RAIN  47  45  93 NW6       29.70S
MANSFIELD      CLOUDY    45  43  93 W9        29.70R
YOUNGSTOWN     CLOUDY    50  44  80 W6        29.68S
$$

OHZ042-051>053-060>062-070>072-077>081-050400-
  SOUTHWEST OHIO

CITY           SKY/WX    TMP DP  RH WIND       PRES   REMARKS
CINC-COVINGTON PTCLDY    45  34  65 NW10      29.77R
CINC-LUNKEN    MOCLDY    48  36  63 NW8       29.78R
HAMILTON       MOCLDY    48  35  60 NW14      29.77S
DAYTON         MOCLDY    43  34  70 NW15      29.75R
WRIGHT-PAT AFB NOT AVBL
DAYTON GENERAL CLOUDY    47  34  60 W9        29.74R
WILMINGTON     CLOUDY    47  37  68 NW9       29.73S
$$

OHZ036-037-039>041-045>050-054>059-063>069-073>076-082>088-050400-
  CENTRAL AND SOUTHEAST OHIO

CITY           SKY/WX    TMP DP  RH WIND       PRES   REMARKS
COLUMBUS       CLOUDY    46  39  76 NW13      29.72R
OSU AIRPORT    CLOUDY    46  37  71 W10       29.72R
BOLTON FIELD   NOT AVBL
RICKENBACK AFB MOCLDY    46  38  74 NW14      29.72S
NEWARK         CLOUDY    48  41  76 NW6       29.71R
MARION         CLOUDY    45  40  82 NW6       29.72S
LANCASTER      CLOUDY    48  41  76 NW9       29.72R
ZANESVILLE     CLOUDY    51  46  83 NW6       29.70R
NEW PHILLY     LGT RAIN  51  47  86 CALM      29.69S
$$




USA.gov is the U.S. government's official web portal to all federal, state and local government web resources and services.